Location: Voyageurs National Park
(48.5020°N, 92.9292°W)
Time: 20:32:19
(UTC-05:00)

PCSat - Visible Passes

Search period start: 25 August 2016 00:00
Search period end: 04 September 2016 00:00
Orbit: 786 x 794 km, 67.1° (Epoch: 25 August)

Date Brightness Start Highest point End Pass type
(mag) Time Alt. Az. Time Alt. Az. Time Alt. Az.
25 Aug 10.5 20:38:02 10° NNW 20:43:02 36° NE 20:48:01 10° ESE visible
25 Aug 10.2 22:21:23 10° NW 22:26:37 49° WSW 22:29:00 29° S visible
26 Aug 9.8 21:50:27 10° NW 21:55:51 65° WSW 21:59:07 24° SSE visible
26 Aug 12.1 23:37:20 10° W 23:38:11 10° W 23:39:01 10° WSW visible
27 Aug 9.6 21:19:34 10° NW 21:25:02 85° WSW 21:29:19 17° SSE visible
27 Aug 11.8 23:04:43 10° WNW 23:07:36 15° WSW 23:10:02 11° SW visible
28 Aug 9.6 20:48:43 10° NNW 20:54:11 76° NE 20:59:34 10° SE visible
28 Aug 11.6 22:33:09 10° WNW 22:37:00 20° WSW 22:40:18 12° SSW visible
29 Aug 11.3 22:01:52 10° NW 22:06:20 26° WSW 22:10:37 11° SSW visible
30 Aug 10.9 21:30:46 10° NW 21:35:39 35° WSW 21:40:31 10° S visible
31 Aug 10.5 20:59:45 10° NW 21:04:56 46° WSW 21:10:04 10° S visible
01 Sep 10.1 20:28:48 10° NW 20:34:10 62° WSW 20:39:29 10° SSE visible
02 Sep 12.2 21:43:14 10° WNW 21:45:53 14° WSW 21:48:32 10° SW visible
03 Sep 12.0 21:11:35 10° WNW 21:15:17 19° WSW 21:18:58 10° SSW visible
